TimeCST,TemperatureF,Dew PointF,Humidity,Sea Level PressureIn,VisibilityMPH,Wind Direction,Wind SpeedMPH,Gust SpeedMPH,PrecipitationIn,Events,Conditions,WindDirDegrees,DateUTC
12:53 AM,-23.1,-27.0,82,30.67,10.0,NNW,5.8,-,N/A,,Clear,330,2014-01-23 06:53:00
1:53 AM,-27.0,-33.0,73,30.70,10.0,Calm,Calm,-,N/A,,Clear,0,2014-01-23 07:53:00
2:53 AM,-29.0,-33.0,81,30.72,10.0,WNW,6.9,-,N/A,,Clear,300,2014-01-23 08:53:00
3:53 AM,-29.9,-9999,N/A,30.74,10.0,NW,6.9,-,N/A,,Clear,310,2014-01-23 09:53:00
4:53 AM,-29.0,-32.1,85,30.75,10.0,NW,8.1,-,N/A,,Partly Cloudy,310,2014-01-23 10:53:00
5:12 AM,-29.0,-33.0,81,30.58,10.0,NW,6.9,-,N/A,,Mostly Cloudy,310,2014-01-23 11:12:00
5:42 AM,-27.0,-31.0,81,30.58,10.0,WNW,6.9,-,N/A,,Partly Cloudy,290,2014-01-23 11:42:00
5:53 AM,-33.0,-9999,N/A,30.77,10.0,West,5.8,-,N/A,,Partly Cloudy,280,2014-01-23 11:53:00
6:53 AM,-32.1,-9999,N/A,30.79,10.0,WNW,4.6,-,N/A,,Clear,290,2014-01-23 12:53:00
7:53 AM,-29.9,-9999,N/A,30.79,4.0,WNW,3.5,-,N/A,,Haze,290,2014-01-23 13:53:00
8:53 AM,-27.0,-29.0,90,30.78,10.0,WNW,4.6,-,N/A,,Clear,300,2014-01-23 14:53:00
9:53 AM,-23.1,-25.1,90,30.79,10.0,WSW,4.6,-,0.00,,Clear,240,2014-01-23 15:53:00
10:53 AM,-16.1,-20.0,82,30.77,10.0,West,5.8,-,0.00,,Clear,280,2014-01-23 16:53:00
11:53 AM,-9.9,-16.1,74,30.73,10.0,West,8.1,-,N/A,,Clear,270,2014-01-23 17:53:00
12:53 PM,-7.1,-13.0,75,30.69,10.0,West,6.9,-,N/A,,Clear,280,2014-01-23 18:53:00
1:53 PM,-6.0,-11.9,75,30.66,10.0,WSW,6.9,-,N/A,,Clear,240,2014-01-23 19:53:00
2:53 PM,-5.1,-11.9,72,30.63,10.0,SW,12.7,-,N/A,,Clear,230,2014-01-23 20:53:00
3:53 PM,-4.0,-11.9,69,30.59,10.0,SW,11.5,-,N/A,,Clear,230,2014-01-23 21:53:00
4:53 PM,-7.1,-14.1,72,30.54,10.0,SSW,9.2,-,N/A,,Clear,200,2014-01-23 22:53:00
5:53 PM,-8.0,-15.0,71,30.48,10.0,South,10.4,-,N/A,,Clear,190,2014-01-23 23:53:00
6:53 PM,-9.0,-15.0,75,30.40,10.0,South,13.8,-,N/A,,Clear,190,2014-01-24 00:53:00
7:53 PM,-7.1,-13.0,75,30.34,10.0,SSW,10.4,-,N/A,,Mostly Cloudy,200,2014-01-24 01:53:00
8:53 PM,-4.0,-9.9,76,30.24,10.0,SSW,11.5,-,N/A,,Scattered Clouds,200,2014-01-24 02:53:00
9:53 PM,1.0,-6.0,72,30.15,10.0,SSW,13.8,-,N/A,,Mostly Cloudy,210,2014-01-24 03:53:00
10:53 PM,5.0,-4.0,66,30.05,10.0,SW,17.3,-,N/A,,Clear,220,2014-01-24 04:53:00
11:53 PM,8.1,-0.9,67,29.95,10.0,SW,16.1,23.0,N/A,,Mostly Cloudy,220,2014-01-24 05:53:00